When you browse on this site, cookies collect data to enhance your experience and personalize the content and advertising you see.
Visit our Privacy Policy to learn more. By continuing to use the site, you agree to this use of cookies and data.
  • Em Portugal
  • Lista de países
  • Para 7 dias
  • Temperatura da água
  • Mapa do tempo
  • Widgets de tempo
  • user-avatar
    Iniciar Sessão

    Previsão horária em Totonicapán

    Hoje, 22 Fevereiro, Sábado

    Tempo Temperatura Precipitação Vento Pressão Humidade
    00:00 +8°C° 0 mm 3 m/s 555 mmHg 88%
    01:00 +8°C° 0 mm 3 m/s 555 mmHg 88%
    02:00 +8°C° 0 mm 2 m/s 554 mmHg 87%
    03:00 +7°C° 0 mm 2 m/s 554 mmHg 86%
    04:00 +8°C° 0 mm 2 m/s 554 mmHg 85%
    05:00 +8°C° 0 mm 2 m/s 554 mmHg 85%
    06:00 +7°C° 0 mm 2 m/s 554 mmHg 85%
    07:00 +10°C° 0 mm 2 m/s 555 mmHg 78%
    08:00 +13°C° 0 mm 2 m/s 557 mmHg 70%
    09:00 +15°C° 0 mm 2 m/s 558 mmHg 63%
    10:00 +16°C° 0 mm 2 m/s 559 mmHg 60%
    11:00 +17°C° 0 mm 2 m/s 559 mmHg 58%
    12:00 +18°C° 0 mm 2 m/s 559 mmHg 55%
    13:00 +18°C° 0 mm 2 m/s 559 mmHg 53%
    14:00 +18°C° 0 mm 3 m/s 558 mmHg 51%
    15:00 +19°C° 0 mm 3 m/s 558 mmHg 48%
    16:00 +17°C° 0 mm 3 m/s 557 mmHg 57%
    17:00 +15°C° 0 mm 2 m/s 556 mmHg 67%
    18:00 +13°C° 0 mm 2 m/s 556 mmHg 76%
    19:00 +12°C° 0 mm 2 m/s 555 mmHg 81%
    20:00 +10°C° 0 mm 2 m/s 555 mmHg 85%
    21:00 +9°C° 0 mm 2 m/s 555 mmHg 90%
    22:00 +9°C° 0 mm 2 m/s 555 mmHg 89%
    23:00 +9°C° 0 mm 2 m/s 555 mmHg 88%

    Amanhã, 23 Fevereiro, Domingo

    Tempo Temperatura Precipitação Vento Pressão Humidade
    00:00 +8°C° 0 mm 2 m/s 555 mmHg 87%
    01:00 +8°C° 0 mm 2 m/s 554 mmHg 87%
    02:00 +8°C° 0 mm 2 m/s 553 mmHg 87%
    03:00 +7°C° 0 mm 2 m/s 553 mmHg 87%
    04:00 +8°C° 0 mm 1 m/s 553 mmHg 86%
    05:00 +8°C° 0 mm 1 m/s 553 mmHg 85%
    06:00 +7°C° 0 mm 1 m/s 553 mmHg 84%
    07:00 +10°C° 0 mm 1 m/s 555 mmHg 74%
    08:00 +13°C° 0 mm 1 m/s 557 mmHg 64%
    09:00 +16°C° 0 mm 1 m/s 559 mmHg 55%
    10:00 +19°C° 0 mm 1 m/s 559 mmHg 49%
    11:00 +19°C° 0 mm 2 m/s 560 mmHg 43%
    12:00 +21°C° 0 mm 2 m/s 560 mmHg 37%
    13:00 +21°C° 0 mm 3 m/s 559 mmHg 41%
    14:00 +20°C° 0 mm 3 m/s 558 mmHg 45%
    15:00 +19°C° 0 mm 3 m/s 557 mmHg 49%
    16:00 +17°C° 0.1 mm 2 m/s 556 mmHg 58%
    17:00 +15°C° 0.1 mm 2 m/s 555 mmHg 67%
    18:00 +13°C° 0.1 mm 1 m/s 554 mmHg 75%
    19:00 +12°C° 0 mm 1 m/s 554 mmHg 79%
    20:00 +11°C° 0 mm 1 m/s 554 mmHg 84%
    21:00 +10°C° 0 mm 1 m/s 554 mmHg 88%
    22:00 +9°C° 0 mm 1 m/s 553 mmHg 87%
    23:00 +9°C° 0 mm 1 m/s 553 mmHg 86%

    Depois de amanhã, 24 Fevereiro, Segunda-feira

    Tempo Temperatura Precipitação Vento Pressão Humidade
    00:00 +9°C° 0 mm 1 m/s 553 mmHg 85%
    01:00 +9°C° 0 mm 1 m/s 552 mmHg 83%
    02:00 +8°C° 0 mm 1 m/s 552 mmHg 81%
    03:00 +8°C° 0 mm 1 m/s 551 mmHg 79%
    04:00 +8°C° 0 mm 1 m/s 551 mmHg 77%
    05:00 +8°C° 0 mm 1 m/s 551 mmHg 75%
    06:00 +8°C° 0 mm 1 m/s 552 mmHg 74%
    07:00 +11°C° 0 mm 1 m/s 554 mmHg 66%
    08:00 +14°C° 0 mm 1 m/s 556 mmHg 58%
    09:00 +18°C° 0 mm 1 m/s 558 mmHg 51%
    10:00 +20°C° 0 mm 1 m/s 558 mmHg 47%
    11:00 +20°C° 0 mm 2 m/s 559 mmHg 43%
    12:00 +23°C° 0 mm 2 m/s 559 mmHg 39%
    13:00 +20°C° 0.1 mm 2 m/s 558 mmHg 47%
    14:00 +19°C° 0.1 mm 2 m/s 556 mmHg 55%
    15:00 +18°C° 0.1 mm 2 m/s 555 mmHg 63%
    16:00 +16°C° 0.1 mm 2 m/s 554 mmHg 71%
    17:00 +15°C° 0.1 mm 2 m/s 554 mmHg 79%
    18:00 +13°C° 0.1 mm 1 m/s 553 mmHg 87%
    19:00 +13°C° 0 mm 1 m/s 553 mmHg 88%
    20:00 +12°C° 0 mm 1 m/s 553 mmHg 90%
    21:00 +11°C° 0 mm 1 m/s 553 mmHg 91%
    22:00 +11°C° 0 mm 1 m/s 553 mmHg 91%
    23:00 +10°C° 0 mm 1 m/s 553 mmHg 90%

    25 Fevereiro, Terça-feira

    Tempo Temperatura Precipitação Vento Pressão Humidade
    00:00 +10°C° 0 mm 1 m/s 552 mmHg 89%
    01:00 +10°C° 0 mm 1 m/s 552 mmHg 90%
    02:00 +9°C° 0 mm 1 m/s 552 mmHg 90%
    03:00 +9°C° 0 mm 1 m/s 551 mmHg 90%
    04:00 +9°C° 0 mm 1 m/s 551 mmHg 90%
    05:00 +9°C° 0 mm 1 m/s 551 mmHg 90%
    06:00 +8°C° 0 mm 1 m/s 551 mmHg 91%
    07:00 +11°C° 0 mm 1 m/s 553 mmHg 79%
    08:00 +14°C° 0 mm 1 m/s 555 mmHg 68%
    09:00 +18°C° 0 mm 1 m/s 557 mmHg 56%
    10:00 +19°C° 0 mm 1 m/s 557 mmHg 50%
    11:00 +20°C° 0 mm 2 m/s 558 mmHg 44%
    12:00 +23°C° 0 mm 2 m/s 559 mmHg 38%
    13:00 +20°C° 0 mm 2 m/s 557 mmHg 44%
    14:00 +19°C° 0 mm 2 m/s 556 mmHg 51%
    15:00 +17°C° 0 mm 2 m/s 555 mmHg 57%
    16:00 +16°C° 0.1 mm 2 m/s 554 mmHg 66%
    17:00 +15°C° 0.1 mm 2 m/s 553 mmHg 74%
    18:00 +13°C° 0.1 mm 1 m/s 553 mmHg 83%
    19:00 +13°C° 0.1 mm 1 m/s 553 mmHg 84%
    20:00 +12°C° 0.1 mm 1 m/s 554 mmHg 86%
    21:00 +11°C° 0.1 mm 0 m/s 554 mmHg 87%
    22:00 +10°C° 0 mm 0 m/s 554 mmHg 88%
    23:00 +10°C° 0 mm 0 m/s 553 mmHg 89%

    26 Fevereiro, Quarta-feira

    Tempo Temperatura Precipitação Vento Pressão Humidade
    00:00 +9°C° 0 mm 0 m/s 553 mmHg 90%
    01:00 +9°C° 0 mm 0 m/s 553 mmHg 90%
    02:00 +9°C° 0 mm 0 m/s 552 mmHg 90%
    03:00 +10°C° 0 mm 1 m/s 552 mmHg 90%
    04:00 +10°C° 0 mm 1 m/s 552 mmHg 90%
    05:00 +9°C° 0 mm 1 m/s 552 mmHg 91%
    06:00 +9°C° 0 mm 1 m/s 552 mmHg 92%
    07:00 +12°C° 0 mm 1 m/s 554 mmHg 82%
    08:00 +14°C° 0 mm 1 m/s 556 mmHg 72%
    09:00 +16°C° 0 mm 1 m/s 557 mmHg 62%
    10:00 +19°C° 0 mm 1 m/s 558 mmHg 56%
    11:00 +19°C° 0 mm 2 m/s 558 mmHg 50%
    12:00 +21°C° 0 mm 3 m/s 559 mmHg 44%
    13:00 +19°C° 0.4 mm 2 m/s 557 mmHg 54%
    14:00 +17°C° 0.4 mm 2 m/s 556 mmHg 65%
    15:00 +15°C° 0.4 mm 2 m/s 554 mmHg 75%
    16:00 +14°C° 0.8 mm 1 m/s 554 mmHg 79%
    17:00 +14°C° 0.8 mm 1 m/s 554 mmHg 84%
    18:00 +13°C° 0.8 mm 1 m/s 554 mmHg 88%
    19:00 +12°C° 0.3 mm 1 m/s 554 mmHg 89%
    20:00 +12°C° 0.3 mm 1 m/s 554 mmHg 89%
    21:00 +11°C° 0.3 mm 1 m/s 554 mmHg 90%
    22:00 +11°C° 0.1 mm 1 m/s 554 mmHg 91%
    23:00 +11°C° 0.1 mm 1 m/s 554 mmHg 91%

    27 Fevereiro, Quinta-feira

    Tempo Temperatura Precipitação Vento Pressão Humidade
    00:00 +9°C° 0.1 mm 2 m/s 554 mmHg 92%
    01:00 +9°C° 0.1 mm 2 m/s 554 mmHg 92%
    02:00 +9°C° 0.1 mm 2 m/s 553 mmHg 92%
    03:00 +9°C° 0.1 mm 2 m/s 553 mmHg 92%
    04:00 +9°C° 0 mm 2 m/s 553 mmHg 92%
    05:00 +9°C° 0 mm 2 m/s 553 mmHg 92%
    06:00 +9°C° 0 mm 2 m/s 554 mmHg 92%
    07:00 +10°C° 0.1 mm 2 m/s 555 mmHg 87%
    08:00 +12°C° 0.1 mm 2 m/s 556 mmHg 82%
    09:00 +13°C° 0.1 mm 2 m/s 557 mmHg 76%
    10:00 +14°C° 0.1 mm 2 m/s 557 mmHg 72%
    11:00 +15°C° 0.1 mm 2 m/s 558 mmHg 67%
    12:00 +15°C° 0.1 mm 2 m/s 558 mmHg 62%
    13:00 +15°C° 0.1 mm 2 m/s 557 mmHg 63%
    14:00 +15°C° 0.1 mm 2 m/s 557 mmHg 65%
    15:00 +14°C° 0.1 mm 2 m/s 556 mmHg 66%
    16:00 +13°C° 0.1 mm 2 m/s 556 mmHg 71%
    17:00 +12°C° 0.1 mm 2 m/s 555 mmHg 76%
    18:00 +10°C° 0.1 mm 2 m/s 555 mmHg 81%
    19:00 +9°C° 0 mm 2 m/s 555 mmHg 84%
    20:00 +8°C° 0 mm 2 m/s 555 mmHg 86%
    21:00 +7°C° 0 mm 2 m/s 554 mmHg 89%
    22:00 +7°C° 0 mm 2 m/s 554 mmHg 89%
    23:00 +7°C° 0 mm 2 m/s 554 mmHg 88%
    Mostrar mais